Flag for U.S.A. Weather past 2 weeks in Olathe, Kansas, U.S.A.

Now
55 °F

Clear.


Feels Like: 53 °F
Forecast: 38 / 49 °F
Wind: 7 mph from Southwest

Location: Johnson County Executive Airport


UV Index: 0 (Low)

Visibility: 10 mi


Pressure: 30.00 "Hg

Humidity: 42%

Dew point: 32 °F

Location of OlatheLocation

Historic Weather in Olathe

°F

Olathe temperature yesterday

Maximum temperature yesterday: 52 °F (at 3:53 PM)
Minimum temperature yesterday: 27 °F (at 5:53 AM)
Average temperature yesterday: 41 °F

Past Weeks' High & Low Weather Summary

 TemperatureHumidityPressure
High79 °F (Apr 12, 3:53 PM)100% (Apr 2, 9:53 PM)30.24 "Hg (Apr 2, 9:53 PM)
Low27 °F (Apr 15, 5:53 AM)22% (Apr 9, 1:53 PM)29.40 "Hg (Apr 13, 3:53 PM)
Average52 °F59%29.89 "Hg
* Reported Apr 1 11:00 PM — Apr 16 10:53 PM, Olathe, Weather by CustomWeather, © 2014

Note: Actual official high and low records may vary slightly from our data, if they occured in-between our weather recording intervals... More about our weather records

Advertising

Historic Weather Conditions — Data for Previous 24 hours

 ConditionsComfort  
Time TempWeatherWind HumidityBarometerVisibility
10:53 PM
Apr 16
55 °FClear.7 mph42%30.00 "Hg10 mi
9:53 PM54 °FClear.9 mph43%29.96 "Hg10 mi
8:53 PM55 °FSunny.13 mph42%29.91 "Hg10 mi
7:53 PM58 °FSunny.13 mph36%29.90 "Hg10 mi
6:53 PM61 °FSunny.15 mph34%29.88 "Hg10 mi
5:53 PM60 °FSunny.23 mph33%29.88 "Hg10 mi
4:53 PM61 °FSunny.22 mph32%29.87 "Hg10 mi
3:53 PM62 °FSunny.24 mph31%29.87 "Hg10 mi
2:53 PM62 °FSunny.23 mph32%29.88 "Hg10 mi
1:53 PM60 °FSunny.30 mph36%29.88 "Hg10 mi
12:53 PM59 °FSunny.23 mph35%29.90 "Hg10 mi
11:53 AM57 °FSunny.26 mph34%29.93 "Hg10 mi
10:53 AM54 °FSunny.21 mph40%29.96 "Hg10 mi
9:53 AM51 °FSunny.24 mph44%29.94 "Hg10 mi
8:53 AM48 °FSunny.23 mph46%29.95 "Hg10 mi
7:53 AM45 °FSunny.21 mph51%29.97 "Hg10 mi
6:53 AM41 °FClear.13 mph58%29.96 "Hg10 mi
5:53 AM40 °FClear.13 mph58%29.96 "Hg10 mi
4:53 AM41 °FClear.16 mph55%29.96 "Hg10 mi
3:53 AM42 °FClear.17 mph53%29.97 "Hg10 mi
2:53 AM43 °FClear.20 mph51%29.98 "Hg10 mi
1:53 AM43 °FClear.16 mph53%30.01 "Hg10 mi
12:53 AM43 °FClear.15 mph53%30.01 "Hg10 mi
11:53 PM
Apr 15
45 °FClear.17 mph49%30.02 "Hg10 mi
Weather by CustomWeather, © 2014

See weather overview